Regional Weather Roundup
Issued by NWS Sterling, VA

Home | Current Version | Previous Version | Graphics & Text | Print | Product List | Glossary On
Versions: 1 2 3 4 5 6 7 8 9 10 11 12 13 14 15 16 17 18 19 20 21 22 23 24 25 26 27
000
ASUS41 KLWX 242211
RWRLWX

REGIONAL WEATHER ROUNDUP
NATIONAL WEATHER SERVICE BALTIMORE MD/WASHINGTON DC
600 PM EDT WED AUG 24 2016

Note: "FAIR" indicates few or no clouds below 12,000 feet
with no significant weather and/or obstructions to visibility.
 TC=TEMPERATURE CELSIUS

 * =Non NWS site. Station does not report precipitation (e.g. rain,
    snow, etc.), thunder, or fog.

DCZ001-MDZ009-015-VAZ040>042-051-053>054-242300-
WASHINGTON METRO

CITY           SKY/WX    TMP DP  RH WIND       PRES   REMARKS
WASHINGTON NAT PTSUNNY   83  66  56 S9        30.19S
DULLES         PTSUNNY   83  65  54 SE14      30.18F
ANDREWS AFB    MOSUNNY   82  65  58 S12       30.18F
FT BELVOIR     PTSUNNY   83  67  57 SE8       30.18F
QUANTICO       MOSUNNY   84  67  56 S13       30.18F
COLLEGE PARK*  MOSUNNY   82  63  51 S6        30.17F
LEESBURG*      MOSUNNY   86  68  54 S13       30.18F
MANASSAS*      SUNNY     84  66  54 S10       30.18F
GAITHERSBURG*  MOSUNNY   82  63  51 S8        30.22F

$$

MDZ006>007-011-014-242300-
BALTIMORE METRO

CITY           SKY/WX    TMP DP  RH WIND       PRES   REMARKS
BWI AIRPORT    CLOUDY    82  65  56 SE8       30.18S
MARTIN STATE   PTSUNNY   82  70  65 SE9       30.20F
ANNAPOLIS      SUNNY     81  65  58 S10       30.19F
FORT MEADE*    CLOUDY    79  64  61 SE9       30.20F

$$

MDZ012-015-019>023-242300-
MARYLAND EASTERN SHORE

CITY           SKY/WX    TMP DP  RH WIND       PRES   REMARKS
OCEAN CITY     SUNNY     78  64  61 VRB7      30.22F
SALISBURY      SUNNY     80  62  54 S8        30.21S
BAY BRIDGE AP* SUNNY     82  63  51 S7        30.19F
CAMBRIDGE*     SUNNY     81  59  47 S3        30.20F
EASTON*        MOSUNNY   82  68  61 SW7       30.24S

$$

MDZ017>025-242300-
SOUTHERN MARYLAND

CITY           SKY/WX    TMP DP  RH WIND       PRES   REMARKS
PATUXENT RIVER MOSUNNY   80  57  45 SE9       30.20F
ST INIGOES     SUNNY     79  59  50 SE7       30.20F
LEONARDTOWN*   SUNNY     79  59  50 SE7       30.22S

$$

MDZ003>005-242300-
NORTH CENTRAL MARYLAND

CITY           SKY/WX    TMP DP  RH WIND       PRES   REMARKS
FREDERICK*     SUNNY     84  70  61 S8        30.20S
HAGERSTOWN APT SUNNY     85  62  46 S12       30.16F

$$

MDZ501>502-242300-
WESTERN MARYLAND

CITY           SKY/WX    TMP DP  RH WIND       PRES   REMARKS
OAKLAND*       SUNNY     75  59  57 SW7       30.26S
CUMBERLAND*    SUNNY     88  63  42 SE6       30.17F

$$

VAZ025>031-242300-
SHENANDOAH VALLEY

CITY           SKY/WX    TMP DP  RH WIND       PRES   REMARKS
WINCHESTER*    SUNNY     82  68  61 S9        30.17S
FRONT ROYAL*   FAIR      82  68  61 S6        30.16S
LURAY*         FAIR      84  64  51 S6        30.16F
NEW MARKET*    FAIR     N/A N/A N/A S3        30.15S
STAUNTON*      SUNNY     82  66  60 S8        30.21S
WAYNESBORO*    FAIR      80  66  61 SE8       30.21F

$$

WVZ021-048>050-054>055-242300-
EASTERN WEST VIRGINIA PANHANDLE

CITY           SKY/WX    TMP DP  RH WIND       PRES   REMARKS
MARTINSBURG    MOSUNNY   83  65  54 S9        30.16S
PETERSBURG*    SUNNY     89  64  42 S8        30.13F HX  90

$$

VAZ036>039-050-242300-
CENTRAL FOOTHILLS

CITY           SKY/WX    TMP DP  RH WIND       PRES   REMARKS
CHARLOTTESVILL PTSUNNY   85  66  53 S12       30.18F
CULPEPER*      SUNNY     84  68  58 S6        30.18F
ORANGE*          N/A     84  64  51 CALM      30.20F
GORDONSVILLE*  NOT AVBL
WARRENTON*     FAIR      84  63  48 S7        30.18S

$$

VAZ055>057-242300-
NORTH AND CENTRAL PIEDMONT

CITY           SKY/WX    TMP DP  RH WIND       PRES   REMARKS
FREDERICKSBRG*   N/A     85  67  53 S6        30.17F
STAFFORD*      MOSUNNY   82  62  51 SE6       30.22F

$$

NCZ024-NYZ072-PAZ021-071-VAZ022-071-242300-
OTHER REGIONAL OBSERVATIONS

CITY           SKY/WX    TMP DP  RH WIND       PRES   REMARKS
NEW YORK CITY    N/A     84  61  45 MISG        N/A
PHILADELPHIA   PTSUNNY   84  60  44 W13       30.19F
PITTSBURGH     PTSUNNY   84  59  42 SW12G18   30.14S
ROANOKE        CLOUDY    82  68  62 S8        30.22F
RICHMOND       PTSUNNY   84  61  45 S9        30.19F
RALEIGH        PTSUNNY   84  63  49 E3        30.21F

$$

ANZ530>537-242300-
MARINE OBSERVATIONS

STATION/POSITION TIME  TEMP    WIND        PRES
                       AIR SEA DIR/SP/G
                 (UTC) (F)     (DEG/KT/KT) (MB)
THOMAS PT LIGHT  2200   80 82  170/ 14/ 15 1023.5F
BALT KEY BRIDGE  2142   81                   N/A
COVE POINT       2142   79                   N/A
LEWISETTA        2142   80 83                N/A
SOLOMONS ISLAND  2142   80 84                N/A
PINEY POINT      2124          150/ 12/ 14   N/A

$$





USA.gov is the U.S. government's official web portal to all federal, state and local government web resources and services.